Wind_Speed
11 11 11 11 12 13 14 15 16 16 16 16 14 14 15 16 18 19 19 18 14 11 10 12 11 15 20 3 14 7 20 37 42 46 40 33 39 37 38 36 30 28 22 19 19 17 15 14 14 16 13 7 5 4 5 7 5 5 4 4 4 2 1 1 3 3 2 4 2 1 3 7 5 1 2 5 11 7 7 8 6 10 11 11 12 12 11 10
11 10 11 11 12 13 15 16 17 17 16 15 14 13 15 16 17 18 19 21 19 15 8 11 13 16 26 5 17 13 6 31 39 36 37 36 39 37 37 36 31 27 22 21 19 17 12 7 11 16 10 4 5 6 5 5 5 5 4 5 4 2 2 2 2 2 4 6 4 4 4 5 5 2 1 3 5 5 7 6 5 9 9 10 13 14 14 14
11 11 11 12 12 14 15 18 18 18 16 15 13 12 15 15 16 16 17 21 24 23 14 9 12 20 30 7 16 16 10 16 27 25 37 38 36 36 37 35 31 28 24 22 19 16 12 9 16 14 6 6 5 5 7 5 4 5 4 6 3 2 4 6 7 6 5 7 7 5 4 6 3 1 3 5 6 6 5 3 3 6 6 6 8 11 14 15
11 11 11 12 13 14 17 19 19 18 16 14 12 12 14 14 15 14 13 17 22 28 21 11 9 19 31 11 13 14 10 7 15 22 37 37 35 35 35 35 32 29 26 25 21 18 16 18 21 12 6 6 5 6 9 6 3 4 4 5 2 2 5 7 7 8 6 7 7 5 6 6 4 4 4 4 6 5 2 2 3 6 7 6 7 9 11 11
12 12 11 12 12 15 18 20 19 17 15 13 11 11 13 14 15 15 12 12 17 25 24 15 8 13 29 22 9 10 4 5 10 27 37 34 33 33 32 34 33 28 27 28 23 23 23 17 14 9 7 5 6 7 6 7 3 4 5 4 3 4 6 4 5 7 5 6 6 6 6 4 3 5 5 3 5 2 1 4 5 7 7 7 8 9 9 9
12 11 11 11 12 15 18 18 17 15 14 12 10 10 12 14 15 17 15 13 14 22 25 19 10 6 18 29 22 12 9 5 12 30 35 31 30 30 31 33 33 29 28 29 26 26 21 13 12 8 5 6 9 8 4 7 5 6 5 6 7 6 5 3 4 5 5 7 6 4 4 2 4 5 5 6 6 3 4 7 6 8 9 11 10 10 9 8
11 10 10 10 12 15 16 16 16 15 13 11 9 9 11 13 16 18 19 17 14 21 27 22 13 4 5 16 28 25 14 3 18 30 31 28 27 28 29 31 34 32 29 28 22 16 13 12 12 6 5 8 8 8 9 11 10 10 6 4 7 8 6 4 5 7 8 9 4 3 6 4 5 5 4 7 6 4 7 9 10 11 12 12 10 9 8 8
10 10 10 11 13 14 14 14 16 16 12 10 8 9 11 11 13 15 18 19 14 17 26 26 18 5 3 3 9 15 10 8 24 30 28 25 24 26 27 30 33 34 32 28 18 10 8 10 7 3 7 6 3 5 8 13 11 8 7 3 4 5 6 6 7 8 8 7 5 8 8 4 5 6 4 4 4 5 8 11 12 13 12 10 8 8 8 8
10 10 11 12 12 13 13 15 16 15 12 10 9 9 10 10 10 11 13 15 16 15 19 26 25 15 11 6 2 7 8 16 25 27 25 22 22 24 25 29 32 31 31 29 24 14 7 6 5 5 8 4 4 3 2 8 5 2 6 4 5 5 4 6 7 6 6 3 5 10 7 5 6 6 4 3 5 5 8 9 8 9 8 6 6 8 10 10
12 12 13 13 12 13 14 15 16 15 13 11 9 9 10 10 9 10 11 11 14 16 16 18 23 29 27 15 8 9 10 20 26 26 22 19 20 22 26 28 29 29 26 25 25 16 6 6 8 9 10 4 5 5 5 9 5 2 8 6 6 7 3 5 5 3 4 2 4 8 5 4 2 2 2 3 4 5 6 6 5 6 5 4 5 7 10 11
14 14 15 13 13 13 14 15 16 17 16 14 11 9 9 9 8 10 12 11 9 11 14 14 15 25 33 27 14 7 13 23 27 27 20 16 18 20 25 25 25 28 24 21 22 16 7 4 8 8 6 3 6 9 7 8 8 6 9 8 6 6 4 5 5 2 2 2 3 9 6 2 3 2 3 6 5 5 6 5 4 5 5 4 4 5 7 9
15 15 15 14 13 13 13 13 15 18 21 20 18 13 7 7 8 9 12 13 10 8 9 13 15 12 16 22 13 4 15 24 27 26 19 15 16 17 22 22 22 26 22 18 20 19 16 9 8 7 3 4 6 7 4 4 8 6 6 8 4 5 6 5 3 1 2 2 4 6 4 3 4 2 5 8 7 6 7 6 5 5 5 5 4 4 5 7
15 15 15 14 13 12 11 10 11 15 18 21 24 22 10 2 4 8 11 13 10 9 8 9 12 13 11 9 6 11 18 23 27 24 19 17 15 13 16 17 19 23 21 17 18 19 20 21 19 10 4 5 4 4 5 3 5 3 3 6 2 5 5 5 4 2 3 4 5 4 2 4 4 3 6 7 7 8 7 6 5 5 5 5 5 4 4 7
15 15 15 14 12 11 9 8 7 8 11 14 20 27 19 3 1 4 9 14 11 7 9 9 6 12 15 4 2 16 21 23 28 27 23 21 17 15 15 15 17 20 20 18 20 21 20 24 23 10 4 5 3 4 5 3 4 3 3 3 2 3 2 6 4 4 3 1 3 6 1 5 5 5 7 6 7 8 7 6 5 5 4 4 4 4 4 6
16 15 15 15 12 10 9 7 7 7 9 10 12 24 26 11 1 1 2 9 15 10 6 10 7 7 9 3 3 17 23 26 31 32 26 21 19 18 17 16 15 17 20 18 17 19 23 27 21 7 3 5 5 6 4 3 4 4 3 3 3 3 1 6 4 4 3 2 3 6 1 4 4 7 8 6 7 8 7 6 5 5 5 4 4 4 4 4
16 15 15 15 13 12 9 7 8 8 8 9 7 15 27 23 7 2 2 1 10 13 8 10 10 7 6 1 7 14 20 23 27 30 23 16 16 17 18 16 12 13 17 19 18 18 22 22 11 3 4 6 5 4 4 4 4 4 4 1 3 4 3 4 2 3 3 2 4 3 1 3 3 5 8 6 6 7 7 6 5 5 5 5 4 4 4 4
17 16 14 14 15 13 11 9 8 8 8 9 5 6 21 30 16 4 2 1 2 7 12 16 11 7 7 6 7 9 14 20 24 30 24 14 14 18 18 13 10 9 9 16 22 18 15 11 4 3 5 5 4 3 4 5 4 4 4 2 3 3 2 3 3 5 7 3 4 4 1 4 4 4 7 6 6 7 6 6 5 5 5 5 5 4 4 4
17 17 15 14 14 14 13 11 8 8 8 8 4 1 6 20 26 22 14 7 3 4 10 21 15 6 5 9 7 11 18 20 21 28 27 15 11 17 18 10 9 10 6 9 16 12 8 6 4 4 6 7 7 6 5 1 1 2 3 2 3 4 3 4 4 5 8 7 5 4 2 6 7 3 6 6 5 7 5 5 4 4 5 5 5 5 5 5
16 17 16 14 14 15 14 12 11 9 8 7 3 3 4 3 16 29 33 24 12 5 4 11 10 4 2 7 10 18 18 15 18 27 31 21 11 13 17 12 7 8 6 5 8 8 4 4 5 5 7 8 7 5 1 4 4 3 3 1 2 4 2 3 4 3 8 7 5 5 5 8 8 4 6 6 4 6 4 3 4 4 4 5 5 5 6 5
16 17 16 15 13 14 15 14 13 13 11 6 2 5 4 2 5 10 21 22 11 6 5 3 3 3 3 5 13 22 14 8 14 27 36 28 12 10 15 11 6 8 7 3 4 6 4 8 7 5 5 6 6 6 4 4 3 3 2 3 3 4 4 5 3 3 8 6 4 4 6 8 9 7 5 5 4 5 4 3 4 5 4 5 6 6 7 7
16 16 16 15 12 13 15 13 13 14 13 5 5 7 3 2 5 1 3 9 7 7 7 2 3 3 3 4 12 18 7 5 14 27 37 28 11 8 10 9 8 8 6 3 3 4 5 9 6 5 5 6 5 6 3 1 1 2 4 3 4 4 5 6 3 3 7 4 3 4 7 9 11 11 2 6 6 4 5 5 5 6 6 5 6 7 7 5
16 15 16 14 10 10 13 13 12 11 11 9 12 12 6 4 8 7 4 5 4 6 5 3 5 3 4 3 10 12 3 6 14 23 34 27 13 7 4 7 10 7 7 4 3 5 7 8 6 8 4 2 3 6 5 6 5 4 3 3 3 3 5 6 3 5 7 3 3 5 7 8 10 10 7 6 4 1 3 2 2 4 5 5 6 7 6 4
15 14 15 14 9 7 10 12 11 10 13 17 17 13 7 7 8 6 4 5 2 3 3 4 4 3 5 4 11 12 5 7 6 14 28 21 8 5 3 6 9 6 8 8 6 5 6 4 8 8 4 3 5 9 8 7 5 4 4 4 2 3 3 3 3 7 8 1 2 3 5 6 8 9 9 6 4 3 3 5 5 3 4 6 6 6 5 6
15 14 14 14 10 5 7 10 10 13 17 19 19 13 8 6 5 4 3 4 2 1 1 1 2 2 3 4 12 9 3 4 1 9 22 15 4 2 4 5 6 6 6 8 10 10 5 5 7 6 6 6 5 9 10 7 5 3 2 5 1 2 1 3 5 7 7 1 1 3 4 5 8 9 8 7 7 7 7 8 8 7 6 5 6 6 5 5
15 15 14 15 11 5 4 7 10 13 14 14 14 10 8 7 3 3 3 4 4 2 1 0 1 4 4 6 13 5 2 3 2 7 15 12 4 2 3 2 4 4 0 4 9 9 5 5 5 5 7 7 6 6 7 4 4 4 1 4 4 1 2 5 7 5 4 2 2 4 5 3 6 7 6 6 6 7 6 8 9 9 8 7 7 6 4 2
16 16 15 15 13 6 2 5 8 7 7 8 7 5 6 6 4 3 3 5 4 3 5 3 1 7 8 9 12 3 4 4 3 9 16 14 5 1 4 3 2 3 2 3 5 4 4 6 5 5 5 8 7 4 3 3 4 3 1 4 5 2 3 5 5 3 3 1 3 4 5 1 4 5 6 5 6 7 7 8 9 8 9 9 7 5 3 1
16 16 15 15 14 10 3 2 6 5 3 4 3 3 4 4 4 3 2 5 4 2 4 4 2 7 8 10 11 3 3 7 5 11 17 17 9 1 5 5 3 4 1 2 4 1 4 8 8 7 6 7 6 4 3 3 3 3 1 4 1 4 4 3 1 2 1 1 4 5 4 3 1 3 5 6 5 8 8 8 9 8 9 9 8 6 6 4
15 16 15 13 14 14 8 4 4 4 4 2 1 2 3 3 1 2 5 4 3 1 1 3 3 6 6 9 13 7 1 6 3 9 16 19 14 2 5 5 3 5 4 4 3 1 3 6 6 7 7 6 4 5 5 1 1 5 3 0 5 4 3 3 3 1 1 2 4 6 5 3 1 3 5 5 5 6 7 6 7 7 7 8 8 7 6 5
14 14 15 12 10 11 10 8 7 5 3 1 1 1 2 3 1 3 6 3 2 1 1 2 3 5 6 7 9 6 3 4 3 7 14 16 17 7 4 1 4 6 8 7 5 2 0 1 1 2 5 5 5 7 5 2 2 7 3 3 3 1 2 3 3 1 2 5 2 4 5 2 2 3 4 3 4 3 5 5 5 6 6 6 6 6 5 5
13 13 14 13 10 9 7 9 11 6 3 2 0 1 1 2 4 5 4 1 1 2 1 3 3 4 7 6 6 5 6 4 2 6 6 6 13 11 4 0 4 6 7 7 5 0 2 2 1 3 3 4 5 6 3 4 4 6 4 4 4 4 3 3 2 2 4 4 2 2 2 1 1 3 3 1 0 2 3 4 5 5 6 6 5 5 5 5
12 11 13 14 14 13 7 7 11 7 4 2 1 1 0 1 5 7 2 1 0 2 2 3 2 4 7 5 4 5 5 5 5 6 5 3 9 11 5 4 4 4 5 6 5 4 6 5 3 2 2 3 3 4 3 2 4 5 4 2 2 2 3 3 4 4 5 2 4 2 2 2 1 3 4 3 3 3 3 3 5 6 6 5 5 5 5 5
12 10 12 15 15 16 10 7 9 7 4 2 1 2 3 3 4 3 1 3 1 2 2 2 3 4 5 3 4 5 4 5 5 5 4 3 6 7 6 4 2 3 5 4 4 5 4 3 4 5 3 4 5 3 4 5 6 7 6 4 4 2 3 2 3 3 1 3 3 1 3 2 2 4 4 3 5 4 5 5 5 5 6 5 5 5 5 5
11 8 10 14 16 16 14 11 9 6 4 1 3 4 6 5 2 1 2 2 1 2 1 1 4 3 3 4 4 5 3 3 5 5 2 2 4 4 5 6 5 3 2 2 3 5 3 4 6 6 3 5 6 4 4 5 5 7 5 3 3 3 4 2 3 2 2 5 3 1 2 1 2 3 4 5 4 5 6 5 5 6 6 6 6 6 5 5
10 8 8 13 16 18 16 13 11 6 3 2 3 5 7 4 0 1 2 2 1 2 1 0 4 4 4 4 3 3 3 2 3 5 4 3 5 4 5 8 8 4 2 3 3 3 2 3 5 4 3 4 5 3 1 2 3 4 1 2 3 4 3 1 2 1 2 5 5 4 2 2 1 2 4 5 4 4 4 5 5 5 5 5 6 5 5 6
9 6 8 13 17 19 17 14 11 6 2 3 5 6 5 1 2 2 1 3 1 2 2 1 2 4 4 3 3 2 1 1 2 4 5 4 3 2 3 5 6 3 3 3 1 1 2 2 4 2 2 2 4 3 0 1 2 2 1 4 2 2 3 1 2 3 2 2 4 3 1 3 2 2 2 1 2 4 4 5 5 5 6 5 5 6 5 5
8 4 7 13 18 20 18 14 11 7 1 4 7 5 2 2 2 3 2 1 1 1 1 2 3 5 4 4 4 4 1 1 2 4 4 3 1 2 2 2 3 4 3 3 1 1 2 2 4 3 3 1 0 2 2 1 1 2 3 2 2 2 5 2 2 2 3 2 3 2 2 3 2 2 2 4 2 5 5 5 5 6 7 6 5 6 5 6
8 3 5 13 20 21 17 15 11 6 3 6 6 2 1 1 1 2 1 0 0 0 2 1 1 2 2 2 4 5 3 1 3 4 2 2 2 2 3 2 2 2 2 2 1 0 1 2 4 2 2 3 2 2 2 2 1 2 2 1 1 2 4 3 1 4 5 1 3 3 3 4 2 1 2 1 4 6 6 5 5 6 6 6 6 6 6 7
8 3 2 11 21 21 17 15 10 3 5 7 5 2 1 0 0 1 0 0 1 1 4 2 0 0 1 1 2 5 4 3 3 4 2 1 2 1 2 2 1 2 3 2 1 0 1 2 5 2 2 5 2 3 2 5 2 4 1 1 2 3 2 2 2 1 2 2 4 5 4 3 2 2 3 4 5 5 6 6 5 6 6 6 7 7 8 8
7 3 2 11 21 20 15 13 7 3 6 6 3 1 1 1 1 1 1 1 1 2 3 2 1 1 1 2 1 4 3 3 2 3 2 1 2 2 2 1 2 3 5 3 3 1 1 2 3 4 3 3 5 4 2 4 5 3 3 3 2 3 2 1 1 2 1 2 3 4 4 2 4 4 5 6 6 5 6 5 4 6 7 6 6 7 7 7
4 3 1 11 21 17 12 10 7 7 6 3 3 2 1 1 1 2 2 1 1 1 1 2 2 2 1 1 0 2 3 3 2 2 1 1 2 1 2 1 2 5 6 4 4 2 2 2 2 5 3 2 3 1 2 1 2 3 4 4 3 1 1 1 1 2 3 1 1 2 4 4 5 3 5 6 6 5 5 3 4 6 7 7 7 7 7 7
4 3 2 12 21 15 8 9 8 5 4 3 2 1 1 2 1 1 2 1 1 1 1 3 3 2 2 1 1 1 2 3 2 2 1 1 2 1 1 1 1 3 4 4 4 2 1 1 1 4 4 2 2 2 3 3 2 1 1 2 1 0 3 3 2 2 1 2 3 2 3 7 5 2 4 5 4 5 5 2 4 7 7 8 8 7 8 8
4 3 3 14 20 10 6 8 4 3 4 2 1 0 1 2 2 0 1 0 1 0 1 3 3 3 2 1 1 1 1 2 1 2 1 1 1 1 1 1 1 1 1 2 2 1 1 3 1 3 3 3 4 0 4 3 3 2 1 2 3 2 3 4 1 3 1 1 1 2 1 6 5 3 4 4 4 5 5 3 5 7 7 8 8 9 9 8
3 1 3 15 18 5 7 6 3 4 3 1 1 1 1 1 2 1 1 1 1 1 2 2 1 2 2 2 2 2 1 1 1 1 1 1 0 1 0 2 2 1 2 1 1 1 2 3 2 4 4 3 4 3 4 2 2 2 1 0 2 0 2 5 4 3 1 2 1 2 2 6 5 2 3 3 3 5 5 4 5 7 7 8 8 9 9 8
1 3 2 14 15 2 5 3 1 2 0 1 2 2 1 1 1 1 0 0 0 1 2 1 1 1 2 2 3 2 1 1 1 0 2 2 1 1 2 3 2 1 0 1 1 1 1 1 2 3 5 6 6 5 5 4 2 1 2 1 1 2 5 3 2 3 0 4 4 3 4 6 4 3 3 5 6 7 7 6 6 7 7 8 8 8 8 8
2 1 3 10 14 9 5 3 5 5 2 2 3 1 1 2 0 1 2 1 0 2 2 1 1 2 3 2 3 2 0 0 1 0 1 2 1 1 3 4 2 2 1 0 2 1 1 1 2 3 2 3 4 4 4 3 2 1 1 1 2 3 4 2 1 3 1 4 4 5 5 6 7 6 7 7 7 7 9 9 8 7 7 8 8 7 8 8
2 1 2 7 10 9 4 1 5 6 4 4 3 1 1 2 1 1 1 1 1 1 2 1 1 3 3 2 3 2 1 1 1 1 1 2 2 0 1 3 2 1 2 2 4 3 3 1 2 4 4 4 5 7 4 1 2 4 3 3 4 4 3 4 3 2 3 2 2 7 7 7 12 11 8 9 8 8 10 10 9 8 7 8 7 7 8 7
2 1 1 2 4 4 4 4 4 4 4 4 3 2 3 2 1 1 0 0 1 1 2 1 1 1 2 3 3 2 1 1 2 1 2 2 1 0 1 2 2 2 1 2 3 3 4 1 2 4 5 6 7 8 4 1 3 7 6 4 5 5 4 6 4 5 4 3 4 7 5 5 11 11 9 10 9 9 10 10 10 8 8 8 8 8 8 8
2 2 2 1 0 1 3 2 3 5 4 3 3 2 3 3 1 1 1 1 2 1 1 1 1 2 4 4 3 3 2 1 1 1 2 1 1 1 2 2 2 4 3 2 3 2 5 2 2 2 5 8 8 9 6 3 5 7 7 7 6 6 7 8 9 7 6 4 8 6 2 6 13 13 12 12 10 10 11 11 9 8 8 8 8 8 8 8
2 2 1 2 1 2 1 1 4 6 5 4 3 2 4 4 4 3 2 2 2 2 0 1 4 4 4 2 3 4 3 1 1 2 3 2 2 2 1 1 1 3 3 2 3 1 3 1 1 1 5 9 9 9 7 5 5 6 8 9 7 8 10 10 9 8 8 10 14 11 11 14 16 13 12 11 9 9 9 8 8 8 9 8 8 8 9 9
2 2 1 3 3 1 1 2 4 5 3 2 2 1 4 6 5 3 1 3 1 2 1 2 4 2 4 2 3 2 4 4 2 2 4 4 1 2 2 2 2 2 3 1 2 2 1 1 0 3 3 8 8 6 2 2 4 7 10 10 7 7 8 9 8 6 7 10 14 12 12 14 13 9 8 9 8 7 8 9 9 9 8 8 8 9 9 9
3 3 3 4 3 2 2 2 3 4 2 1 2 3 2 4 6 4 1 2 3 3 4 5 3 2 3 2 2 2 4 5 4 1 5 5 1 2 1 2 5 4 1 0 1 1 1 1 2 5 3 6 6 4 4 4 4 6 11 12 7 6 6 6 5 5 7 7 7 6 7 9 8 5 6 8 9 8 10 10 9 8 7 7 8 9 9 9
3 2 2 5 3 2 1 2 3 3 2 1 2 3 2 3 5 4 2 1 1 2 4 6 5 4 3 1 4 5 5 5 3 2 3 3 3 3 2 3 6 5 4 3 1 0 2 2 1 3 1 6 6 4 5 5 4 3 7 7 6 5 4 4 4 6 8 6 3 4 6 6 4 5 8 10 10 10 10 9 7 7 7 7 8 9 9 8
Wind_Direction
56 55 50 43 39 37 36 31 28 23 21 23 26 32 30 29 28 28 26 23 17 4 5 3 358 4 3 292 190 129 41 31 30 26 24 10 3 7 10 13 18 30 34 33 49 52 44 39 40 52 50 33 15 348 4 19 20 45 68 74 81 92 23 276 185 175 121 113 117 33 48 104 128 158 146 69 51 67 68 61 57 58 64 77 90 95 100 110
49 48 43 42 40 37 35 29 25 18 17 18 24 29 25 26 25 28 30 29 26 12 357 358 4 2 1 350 191 182 70 27 28 24 15 9 11 14 13 17 24 35 42 45 48 49 49 16 35 57 45 21 10 354 10 12 26 58 90 76 68 88 18 354 81 70 80 104 92 62 51 81 125 164 87 79 48 45 67 59 56 68 68 77 84 88 98 103
42 41 39 39 36 33 30 23 18 12 11 15 21 26 23 23 22 28 32 31 28 19 10 357 13 11 5 14 182 189 203 17 27 13 4 8 12 13 15 21 30 41 47 53 56 60 67 52 53 61 56 44 13 17 36 8 23 48 72 76 72 142 53 29 58 68 84 107 96 73 57 56 69 53 63 106 86 43 62 70 60 86 90 86 81 81 87 89
36 37 35 34 32 28 23 15 11 7 8 11 18 25 22 20 22 23 22 26 26 19 15 8 22 20 16 35 169 180 202 23 24 352 355 5 8 11 18 23 34 45 52 61 67 70 70 62 57 55 66 48 349 40 39 357 40 46 48 89 117 124 63 27 56 75 73 88 93 86 74 57 19 29 60 122 91 42 13 46 80 115 116 103 93 82 82 81
35 35 32 32 30 21 14 9 6 5 8 10 17 24 22 22 24 20 10 9 17 17 14 18 39 35 32 46 136 180 173 56 352 342 354 1 6 11 18 26 38 47 54 63 65 64 61 57 59 50 53 41 356 39 20 344 64 74 41 75 64 67 77 31 41 66 65 73 72 67 66 56 22 31 26 60 94 69 8 76 94 114 112 106 105 99 95 90
37 34 31 29 21 10 6 6 5 5 9 9 17 23 24 27 28 29 22 11 20 26 21 21 36 64 49 52 72 92 93 85 324 339 354 358 5 13 19 28 38 47 56 60 55 58 56 47 60 61 52 55 39 47 28 360 54 93 46 36 49 63 83 42 29 50 65 71 55 61 78 61 70 54 20 54 84 84 90 104 106 105 107 110 110 109 109 107
36 30 26 16 4 0 3 8 6 4 9 12 22 28 29 34 37 39 34 29 38 41 33 26 28 71 100 55 57 65 86 74 335 345 353 359 10 14 23 32 38 45 50 49 47 55 59 54 65 82 82 70 53 58 66 50 55 87 82 46 60 70 81 79 77 69 70 80 73 84 77 36 68 83 38 54 74 83 99 106 104 106 113 116 116 118 122 122
31 20 11 360 356 2 9 14 8 6 15 27 35 36 38 42 44 41 35 34 40 43 40 36 34 57 142 38 42 57 68 352 344 353 356 2 15 17 26 34 35 39 40 37 36 47 60 65 76 102 78 67 82 91 79 64 48 68 97 98 74 69 81 86 83 80 76 85 91 77 70 60 96 109 83 81 106 110 113 109 106 112 117 120 124 133 136 135
25 15 6 3 7 15 20 19 14 18 32 45 44 38 41 41 40 33 29 34 38 41 44 44 46 59 81 84 88 62 22 347 352 359 360 4 16 21 25 26 27 31 34 33 33 41 53 70 78 104 103 93 95 91 71 81 50 52 104 104 99 89 83 82 75 86 87 80 82 75 81 120 117 95 79 139 150 134 124 114 113 117 119 128 135 140 137 136
22 16 13 16 21 25 26 24 24 34 43 45 41 36 39 40 37 31 30 38 40 44 45 46 48 54 65 70 67 59 354 350 5 4 3 8 13 20 21 18 19 23 27 29 30 32 43 94 110 113 110 98 84 61 49 101 121 143 111 98 104 111 98 82 91 112 98 60 85 103 130 178 187 64 87 199 174 133 118 110 113 118 130 146 143 144 138 138
19 17 18 21 26 30 30 30 37 50 51 42 33 26 30 38 43 38 36 36 34 40 40 38 37 46 57 60 66 58 354 359 8 5 7 9 8 12 15 15 16 18 20 23 25 28 34 140 157 119 92 95 89 69 62 108 125 133 118 91 68 86 69 58 89 129 95 68 113 127 139 259 317 23 157 186 171 142 126 132 143 133 154 161 155 161 150 148
19 18 20 23 28 31 35 38 49 60 56 46 36 23 17 33 48 48 37 33 33 29 24 31 34 36 52 57 65 23 358 5 6 8 14 9 10 16 17 19 18 17 19 21 22 31 48 68 104 88 70 134 102 80 102 130 121 132 115 99 46 35 43 20 29 342 66 120 178 130 82 336 331 332 179 167 159 154 141 158 174 158 165 163 157 157 153 156
21 22 22 26 28 31 38 41 50 56 51 43 34 25 17 22 54 54 36 27 29 30 23 28 38 48 59 63 46 14 7 8 9 14 21 18 24 33 28 26 24 24 31 39 33 39 57 63 72 82 70 97 101 100 129 119 105 116 61 100 84 16 21 349 349 347 64 137 185 127 42 298 293 253 188 168 157 150 148 172 180 164 160 150 143 133 141 154
25 25 25 26 27 31 32 31 30 28 27 29 28 24 20 20 114 58 36 32 32 29 31 27 36 58 60 98 24 14 7 12 18 18 17 18 25 33 32 36 38 39 50 62 53 50 66 65 61 69 52 62 81 83 91 45 50 72 36 57 46 52 328 311 343 30 58 137 126 94 95 266 266 229 202 187 161 151 162 182 179 169 161 147 142 126 135 154
27 26 26 25 25 25 21 19 7 349 353 360 17 23 21 22 55 118 59 42 42 38 36 35 46 76 66 107 14 6 5 15 18 13 10 11 17 16 9 22 42 52 60 65 60 55 64 66 57 44 2 14 45 59 40 10 20 35 50 360 357 77 312 308 339 51 51 295 47 79 185 266 255 220 209 193 159 157 168 182 181 172 165 155 150 138 144 160
27 25 25 24 23 20 14 10 5 355 350 349 5 29 31 30 23 109 129 86 41 38 44 30 30 79 93 17 341 356 5 7 3 6 12 12 12 2 355 14 36 51 59 56 60 58 53 62 65 36 36 19 33 61 41 29 3 5 64 31 346 37 9 329 332 19 25 306 351 32 214 270 286 219 209 192 157 160 167 179 184 176 175 169 164 158 157 165
26 23 22 22 22 18 13 9 3 359 350 350 4 44 46 42 41 94 137 217 18 27 45 29 17 87 80 2 344 345 346 347 353 5 12 15 16 11 10 19 14 20 53 43 42 45 32 42 60 28 44 32 20 52 60 34 342 344 26 31 353 7 17 4 332 349 18 23 339 351 202 248 285 233 211 199 160 158 168 180 186 182 185 180 175 172 170 174
24 21 19 19 18 17 16 12 3 357 338 336 359 151 70 48 52 62 58 63 54 351 31 19 16 88 44 358 355 328 324 335 353 4 9 15 17 19 23 24 353 1 40 27 25 27 14 28 59 51 33 21 19 36 68 90 255 299 332 3 348 335 25 17 339 346 11 2 333 1 352 286 297 256 210 209 162 150 170 178 183 196 193 190 186 184 191 188
22 19 17 16 17 17 15 15 13 9 348 337 17 141 170 36 49 52 47 54 58 41 37 355 7 102 335 332 332 330 326 336 359 6 9 8 355 12 26 26 10 24 44 16 14 17 19 46 45 47 26 5 2 13 121 202 193 198 247 148 35 341 327 322 319 351 8 351 328 6 344 307 316 299 216 213 155 137 148 151 178 206 201 203 199 199 204 199
20 17 15 13 16 17 17 20 18 14 8 2 113 118 107 29 29 31 31 46 62 74 107 305 356 85 345 318 328 344 347 344 9 11 7 2 342 0 17 10 17 47 43 12 15 1 30 62 40 21 355 329 329 324 272 232 211 176 146 109 60 13 318 296 304 4 18 2 304 342 337 321 334 319 232 176 126 133 145 153 196 213 210 210 207 211 212 210
20 15 13 10 14 20 21 23 22 22 20 29 117 96 110 104 68 133 1 47 57 61 83 13 33 70 337 311 332 351 359 341 8 10 7 5 360 9 4 0 30 36 4 347 25 345 37 60 24 328 301 287 314 331 337 54 53 103 109 103 58 28 317 298 282 345 25 35 290 342 2 351 354 347 350 124 124 166 186 189 212 217 220 222 213 219 220 223
21 16 14 9 11 22 25 29 31 40 49 73 95 85 104 131 104 136 142 86 42 29 61 30 46 41 321 341 349 352 13 3 2 2 4 8 21 33 5 22 52 38 352 9 38 10 44 48 339 310 292 261 350 2 36 60 53 48 70 100 54 1 307 304 314 340 8 55 280 344 22 8 4 13 36 80 110 208 219 215 245 227 236 245 230 228 223 219
22 18 16 10 9 19 26 33 38 52 65 77 83 84 98 97 108 131 97 97 77 1 26 29 51 6 349 27 360 358 42 35 356 345 358 8 24 45 53 43 52 41 22 41 61 56 58 3 318 319 339 70 37 15 29 42 46 44 54 80 12 336 349 321 326 338 339 291 234 355 45 28 12 29 40 36 39 28 8 8 358 311 267 256 250 248 222 198
21 20 20 14 10 15 25 34 45 56 65 77 79 83 101 93 109 134 77 86 71 357 31 51 127 62 17 5 352 356 71 44 13 338 356 11 20 16 67 72 60 47 39 61 74 81 77 306 311 348 23 61 54 24 29 28 14 2 58 94 76 337 6 261 285 327 332 294 135 38 51 25 7 24 29 13 31 37 19 16 4 338 318 292 280 271 236 202
19 19 21 18 13 15 35 32 41 56 65 72 74 78 87 78 84 118 98 68 24 328 357 56 125 31 1 352 353 347 135 39 50 350 354 12 13 358 56 85 78 55 139 84 73 80 58 331 345 31 27 45 62 38 25 19 9 342 324 131 146 157 272 271 296 330 12 27 14 50 68 12 353 17 16 356 24 26 6 16 5 342 344 340 321 294 259 215
18 17 19 22 20 22 56 35 34 53 66 58 62 75 71 63 60 81 106 65 20 315 357 2 23 6 349 350 346 333 77 8 337 12 9 10 357 146 58 355 49 58 199 125 72 85 28 353 29 57 32 36 53 48 8 25 31 344 273 144 140 124 291 287 311 353 68 4 332 47 100 138 335 2 351 335 12 18 5 15 5 350 356 352 340 336 357 65
18 17 17 21 25 34 65 56 29 45 67 49 58 74 54 44 48 51 74 48 10 316 357 338 338 3 347 349 353 62 74 317 320 19 14 11 354 152 63 16 28 20 270 109 53 36 4 358 19 34 26 31 36 11 342 31 32 308 183 118 6 309 285 260 350 41 90 256 335 17 79 120 339 340 322 324 13 20 7 5 357 356 360 358 3 14 23 21
18 19 20 19 26 39 54 61 42 58 74 74 78 66 35 17 21 55 79 70 355 5 22 313 334 358 342 358 16 69 100 313 10 360 356 19 18 27 68 48 87 25 359 103 96 276 3 6 6 14 17 23 13 327 306 29 28 269 225 36 304 286 229 189 126 87 330 61 12 349 34 83 261 283 312 337 38 20 353 347 343 346 349 358 10 18 23 12
17 21 23 22 27 37 46 52 56 67 67 71 83 38 354 5 25 59 74 103 331 11 176 319 347 343 345 7 17 41 14 4 77 328 340 23 23 31 85 53 116 60 28 77 115 202 358 356 234 56 27 358 317 304 293 159 265 281 289 357 342 51 115 124 105 102 40 59 48 331 18 71 255 289 315 352 49 356 323 320 315 320 330 342 352 356 5 2
16 21 22 25 31 27 32 40 37 38 30 23 351 304 294 32 63 60 48 111 360 335 254 7 1 338 7 22 2 9 24 8 331 337 349 27 14 25 84 313 88 80 38 52 76 269 307 313 165 87 29 309 293 301 283 195 253 303 359 35 34 40 55 74 60 83 61 21 258 266 7 98 241 284 263 267 51 248 275 309 309 314 326 325 322 322 328 332
13 19 20 25 31 26 23 19 13 9 1 358 270 308 56 31 61 86 74 270 25 329 360 13 343 9 29 44 6 351 15 353 335 8 18 11 11 17 29 16 36 55 33 32 29 353 350 5 3 325 309 325 337 323 314 278 303 343 8 43 61 7 11 34 355 33 70 328 252 236 347 81 158 253 233 247 277 238 220 267 294 306 312 309 308 304 300 316
10 15 19 24 27 25 24 4 358 3 353 354 159 68 86 40 26 96 288 333 346 321 16 339 311 14 22 39 26 346 347 352 358 38 33 18 31 30 39 34 352 19 21 9 5 358 352 349 325 311 315 18 17 352 342 346 359 8 2 22 60 18 4 23 330 8 83 259 232 199 352 52 192 247 226 243 273 245 220 222 240 267 287 293 295 298 302 319
7 12 17 20 21 19 18 7 1 7 357 54 109 54 76 77 33 200 279 338 26 318 23 312 312 356 19 29 15 340 360 359 354 29 39 61 52 38 39 28 12 32 40 7 10 7 339 308 342 358 352 14 36 43 358 337 353 2 353 27 73 74 36 341 297 349 308 276 276 326 347 330 283 274 205 200 236 236 230 229 231 243 264 282 287 292 301 309
3 13 16 17 17 12 9 5 3 10 15 95 92 49 63 77 162 170 298 275 231 340 9 283 327 354 38 46 350 326 34 12 353 27 15 26 41 17 8 8 9 32 88 62 41 37 24 317 344 14 342 358 32 54 329 283 320 323 267 88 91 113 83 321 258 275 280 288 301 330 7 171 248 289 209 202 241 265 263 261 265 271 274 287 297 300 304 304
358 14 21 17 13 6 3 0 1 8 40 90 65 59 84 144 225 154 223 250 242 339 305 288 39 38 8 351 336 347 62 329 19 53 20 26 58 12 355 345 352 19 71 63 31 45 72 267 277 295 287 1 10 326 285 128 316 293 129 68 38 131 116 151 208 201 230 305 301 312 299 198 204 289 300 26 293 300 318 306 314 315 303 314 319 308 305 299
356 12 27 17 8 1 357 354 355 359 34 86 63 58 134 195 204 151 176 215 157 235 287 331 44 59 353 320 342 355 360 321 32 54 23 27 66 7 9 306 330 12 57 95 66 360 59 263 286 324 321 342 249 285 326 41 328 333 46 41 268 176 124 108 318 344 55 50 284 297 305 293 331 312 342 33 311 292 323 322 318 308 302 315 314 300 297 292
357 11 30 15 5 358 353 349 348 353 48 78 80 96 185 209 154 154 188 26 225 154 95 42 360 50 351 317 326 327 340 357 22 49 31 12 28 13 7 322 328 16 19 115 133 314 104 274 297 354 327 281 184 168 317 341 84 58 30 288 243 68 84 97 39 360 33 43 272 325 327 296 335 315 278 303 275 289 312 303 296 299 302 310 306 297 292 288
351 360 37 10 1 356 351 347 343 360 68 68 81 126 145 79 150 174 167 90 210 45 80 120 190 99 192 181 315 310 343 9 11 46 53 8 39 56 22 338 4 13 335 19 90 322 82 326 299 270 233 295 352 89 348 325 25 83 75 244 99 66 15 30 66 25 4 316 287 318 320 269 233 223 230 234 239 265 290 290 301 315 317 312 305 298 292 292
353 16 32 359 357 355 350 346 347 55 68 71 109 155 135 147 265 222 188 128 133 86 83 158 173 63 148 150 257 302 355 34 28 52 69 35 37 72 79 360 310 339 340 27 83 303 12 70 291 273 242 302 356 54 61 324 339 25 30 360 40 115 161 305 58 138 183 288 294 318 332 290 238 212 195 216 222 232 265 285 310 311 305 298 291 290 290 291
15 50 315 350 356 352 350 3 28 54 60 98 159 162 107 167 258 259 217 180 151 133 117 178 158 88 102 163 63 328 14 49 56 56 52 47 50 41 46 31 325 330 340 24 69 344 3 77 270 293 325 3 358 25 125 121 337 354 24 23 1 355 76 49 11 118 131 169 225 321 317 276 252 211 186 209 218 219 232 258 301 297 292 289 285 286 289 288
48 50 289 348 355 345 359 38 42 50 79 107 122 125 113 147 184 293 261 198 168 235 177 139 130 121 141 124 58 4 26 40 49 61 40 19 56 37 341 36 349 320 341 23 42 13 5 78 250 304 341 2 259 231 158 155 171 188 90 97 140 311 72 75 328 323 88 142 171 166 286 273 260 204 193 205 213 228 226 228 299 297 291 293 294 293 294 293
65 60 291 348 352 347 47 56 31 48 95 111 72 141 114 102 124 183 291 91 98 269 58 90 107 111 129 130 83 106 85 55 41 66 81 306 52 110 280 360 318 295 59 55 344 323 109 94 56 281 281 275 277 270 113 138 167 166 205 135 134 134 105 115 214 274 332 349 166 132 256 272 263 215 202 206 217 244 242 233 280 297 293 293 298 297 297 295
83 170 300 353 350 357 80 60 357 30 56 233 295 354 12 72 121 154 310 360 61 84 45 53 117 110 138 169 123 123 137 141 155 122 142 199 76 152 244 345 332 360 68 101 267 333 60 72 19 297 292 313 328 15 65 45 76 123 277 200 135 199 125 139 165 176 229 276 162 100 270 270 275 262 226 239 269 283 277 268 290 304 302 298 298 297 296 293
117 219 284 358 357 35 108 90 135 80 7 245 42 18 345 49 116 122 141 278 244 131 107 133 199 133 142 135 104 129 195 159 139 141 143 159 161 103 37 2 19 87 44 180 169 349 350 86 60 2 348 345 348 357 358 349 16 169 262 266 162 102 97 109 115 90 309 239 160 140 245 256 276 319 311 303 315 314 304 302 306 302 298 298 297 297 298 299
56 228 266 357 22 62 107 154 143 135 162 118 86 94 45 40 33 173 164 185 225 157 136 154 168 106 117 109 84 92 331 68 157 181 96 155 211 74 31 360 34 130 227 150 98 113 162 155 125 95 51 343 319 306 295 302 304 280 259 174 171 134 124 159 77 82 270 242 154 165 231 262 285 301 309 308 313 310 303 306 306 296 290 289 291 297 302 305
73 75 293 342 22 54 72 117 104 116 156 138 107 149 121 86 308 277 135 124 264 155 95 48 123 94 89 102 90 79 354 7 82 128 150 198 230 182 8 1 37 195 228 54 55 83 112 154 194 166 173 203 237 251 252 336 316 285 271 218 212 210 155 122 110 152 201 190 198 228 237 274 289 292 299 301 304 303 300 302 301 296 292 290 292 296 296 295
83 117 97 339 357 40 46 27 61 100 154 146 124 159 154 135 329 339 72 279 270 111 55 40 149 146 153 146 123 127 197 356 24 127 173 197 200 200 5 43 40 301 297 39 16 74 99 317 252 192 219 232 242 257 264 24 265 259 262 239 218 219 169 144 182 206 156 114 269 252 215 248 278 287 293 294 300 302 297 298 296 292 293 293 293 292 291 294
55 148 139 79 309 63 58 43 78 90 93 93 95 122 139 142 160 177 204 349 2 35 65 17 275 228 193 169 134 138 152 35 349 207 176 190 177 106 24 30 355 332 13 24 335 89 114 268 249 183 262 266 261 268 268 245 247 252 254 246 228 212 191 196 218 204 156 187 252 261 253 266 276 286 291 291 295 293 289 290 290 290 291 289 290 294 299 306
66 108 18 8 97 163 140 93 101 91 84 86 86 125 157 165 188 207 178 70 3 314 105 242 267 233 194 180 108 132 179 168 263 240 191 171 197 156 90 16 317 356 40 50 339 68 124 247 233 165 293 281 269 272 266 241 253 263 256 246 229 213 209 218 229 210 196 232 254 268 283 280 276 279 283 286 285 281 282 288 291 292 290 288 295 303 307 309
110 140 175 46 65 111 40 60 89 84 65 71 96 150 165 164 182 212 166 123 154 265 176 224 253 196 157 163 114 135 219 180 154 226 178 145 222 202 177 178 154 41 30 59 327 340 85 284 90 81 329 293 288 307 321 192 239 267 273 267 241 219 224 233 238 217 211 243 258 267 275 276 275 277 279 281 282 285 291 294 294 291 289 295 304 306 305 302
102 117 132 102 67 351 349 31 77 99 87 53 134 161 185 193 190 176 126 134 155 173 187 198 197 108 88 122 163 240 238 179 144 195 171 151 168 194 183 156 144 132 76 158 301 350 94 299 19 57 11 285 290 336 340 318 292 274 283 282 252 211 213 226 225 200 195 221 251 267 268 266 271 294 300 293 296 301 298 295 295 294 295 299 299 299 300 294
102 87 93 107 83 352 33 43 36 98 157 231 157 162 203 222 198 156 103 37 85 127 189 179 147 104 82 189 235 238 213 179 151 118 140 122 77 77 79 101 119 133 161 155 112 10 118 104 55 67 348 273 285 310 306 325 343 289 267 255 216 199 220 249 253 222 204 197 199 228 247 260 285 315 309 304 305 301 295 294 294 292 294 293 289 291 291 286
Height
865 864 863 862 861 860 859 858 856 855 854 853 851 850 849 848 847 845 844 842 841 839 838 837 835 833 832 830 830 829 829 826 822 816 815 824 829 825 821 818 813 809 806 804 802 801 801 801 800 798 798 801 805 806 805 809 810 812 826 840 849 855 856 854 854 853 853 859 862 862 863 863 869 871 870 871 874 878 880 881 883 881 881 883 883 884 884 884
865 864 863 862 861 860 859 858 856 855 854 853 851 850 849 848 847 846 844 842 841 839 838 836 834 832 829 825 827 826 826 825 822 821 826 831 829 825 822 818 814 811 808 805 805 804 804 806 804 801 804 808 812 810 810 814 818 825 839 847 854 859 859 856 854 854 856 861 864 864 865 864 867 869 868 873 879 880 880 883 884 884 885 885 885 885 885 885
865 864 863 862 861 860 859 858 857 856 854 853 852 851 850 849 848 846 844 843 841 839 837 836 834 832 826 822 823 824 826 824 822 826 832 833 829 827 824 820 817 813 810 808 807 807 807 808 805 806 809 814 818 815 816 821 825 835 843 852 860 860 859 859 857 858 859 861 863 865 866 866 869 868 869 875 879 880 882 884 885 886 887 887 887 887 887 887
866 865 864 863 862 861 860 859 858 856 855 854 853 852 851 850 848 847 845 843 841 839 837 836 835 832 827 821 821 825 825 824 830 838 838 834 832 829 826 823 819 815 813 810 809 808 808 808 807 810 813 821 825 819 826 830 831 842 849 857 862 858 860 862 861 861 862 863 864 867 867 869 871 870 873 875 874 880 884 883 884 887 888 888 888 889 889 889
867 866 865 864 864 863 861 860 858 857 856 855 854 853 852 850 849 847 845 844 842 840 837 835 835 834 830 823 823 825 824 832 844 845 840 837 834 832 829 825 821 818 814 811 811 809 809 809 809 815 822 830 831 827 838 840 835 848 859 861 861 858 861 865 864 863 864 864 866 868 869 872 874 875 878 875 874 881 885 884 886 887 887 888 889 890 890 891
868 867 866 865 864 863 862 861 859 857 856 855 854 853 852 851 849 847 846 844 843 841 838 836 834 834 833 829 827 824 828 846 854 846 842 840 837 834 831 828 824 821 817 814 813 811 813 814 814 823 832 838 840 840 846 844 838 850 863 864 862 861 862 866 866 866 865 864 867 870 872 875 876 879 882 880 881 885 885 886 887 887 888 889 890 891 891 892
869 868 867 866 865 864 862 861 859 857 856 855 854 854 852 851 849 848 847 844 844 842 839 836 834 834 834 832 831 828 835 853 856 848 845 841 839 836 833 831 826 823 819 817 817 817 818 819 823 830 835 840 845 848 848 846 845 852 864 867 865 865 865 868 868 868 867 866 871 872 872 876 877 879 883 885 887 887 886 887 887 888 889 889 890 891 891 892
869 868 867 866 865 864 862 861 859 857 856 855 854 854 852 851 850 849 847 846 844 842 840 838 835 834 832 833 833 832 842 855 854 850 846 843 841 838 835 832 829 826 823 822 822 821 820 824 829 831 836 842 846 849 847 848 854 857 864 867 866 867 869 869 869 869 869 871 873 871 874 879 879 880 884 887 888 887 887 887 888 889 889 890 890 891 891 891
870 869 868 866 865 864 863 861 859 857 856 855 855 854 853 851 850 849 848 847 845 843 842 840 838 835 833 834 831 834 851 859 854 851 847 844 842 839 837 834 831 830 827 827 825 823 823 826 830 829 836 844 846 849 846 848 860 862 863 866 866 869 870 870 871 871 872 874 874 874 881 882 880 880 885 888 887 887 888 887 888 889 889 890 890 891 891 891
870 869 867 866 865 864 863 861 860 858 857 856 855 854 853 852 851 850 848 847 846 844 843 842 842 838 834 832 830 843 860 859 854 852 848 846 843 841 838 835 835 833 831 831 829 828 828 828 830 828 833 842 846 849 847 849 860 863 863 866 867 869 870 870 871 872 871 874 874 875 882 883 880 880 884 889 889 888 889 889 890 890 890 891 891 892 891 892
870 869 867 866 865 864 863 862 860 858 857 857 856 854 853 852 851 850 849 847 847 845 844 844 843 840 837 832 838 857 862 856 854 852 848 847 844 842 840 839 838 835 834 834 833 833 832 831 830 829 834 841 845 850 852 854 859 862 862 865 868 867 869 869 869 871 870 873 874 873 879 882 880 878 882 888 888 889 889 890 891 891 892 892 892 893 893 893
870 869 867 866 865 864 863 862 861 859 859 857 856 855 853 853 851 850 849 848 847 846 845 844 843 843 839 836 849 863 860 856 856 851 849 847 845 844 842 841 840 838 837 836 835 835 834 833 830 832 839 843 848 853 856 857 858 861 860 863 870 868 868 870 869 869 868 872 874 872 876 877 878 880 883 885 886 888 889 890 891 891 891 892 893 893 893 894
870 869 868 866 865 865 864 863 862 860 859 858 857 855 853 852 851 850 849 848 847 846 846 844 844 842 838 844 859 862 858 858 855 851 849 846 846 845 843 843 842 840 839 838 839 837 836 836 834 837 843 846 851 853 855 858 857 861 862 863 868 868 870 871 870 870 868 871 873 871 873 873 878 884 884 884 885 886 888 889 890 890 891 891 892 893 893 893
870 869 868 867 866 865 864 863 862 861 860 858 858 855 853 851 851 851 850 849 847 846 846 844 845 842 841 853 862 859 859 858 853 850 848 846 846 844 843 843 842 842 841 840 840 839 839 837 836 840 846 850 853 852 856 860 861 863 864 867 872 871 872 873 871 871 869 871 871 871 874 873 878 885 883 884 885 885 887 888 890 890 891 892 892 893 893 893
871 870 868 867 866 865 864 863 862 861 859 859 858 856 853 850 850 850 849 850 848 847 846 845 844 843 848 858 861 860 860 856 853 853 851 849 847 845 845 842 843 843 842 842 841 841 840 837 840 849 854 855 855 857 861 863 867 871 868 870 877 874 873 874 873 874 871 871 871 871 875 873 875 882 882 883 884 885 886 888 890 891 891 892 893 893 894 894
872 870 869 868 866 865 864 863 862 861 859 859 859 858 855 850 849 849 850 850 848 848 847 847 847 845 852 861 862 861 860 857 856 856 854 853 850 849 847 844 844 844 843 844 843 842 840 840 849 858 861 862 866 867 863 865 870 875 875 873 877 876 876 876 873 876 875 872 871 871 874 872 873 880 882 883 884 884 886 888 890 891 892 892 892 893 894 894
872 870 869 868 866 865 864 862 862 860 859 859 858 859 857 853 851 849 850 849 849 850 848 850 850 847 856 865 866 865 864 863 861 858 856 854 853 851 848 846 846 845 845 844 842 844 844 849 858 864 868 871 877 870 860 870 877 879 881 879 881 881 879 879 875 876 877 874 874 874 874 871 872 880 882 882 884 884 885 888 890 891 891 892 893 893 893 894
872 871 869 868 867 865 864 862 862 860 859 858 858 858 857 857 854 851 851 850 849 849 848 852 851 852 863 870 871 872 869 866 864 861 858 855 854 853 851 849 848 846 846 847 849 852 853 859 865 869 877 881 886 881 871 880 888 886 887 884 885 884 880 882 881 880 880 877 876 875 875 873 873 880 883 883 884 885 887 889 891 892 892 892 893 893 893 894
873 872 870 869 867 865 864 863 861 860 859 857 858 858 858 858 856 856 856 853 854 860 864 869 867 870 877 877 876 875 870 868 866 863 859 857 856 855 853 853 852 850 851 855 859 863 865 869 875 880 891 895 897 898 890 888 890 889 891 890 891 888 884 885 884 884 886 880 876 877 878 877 876 879 883 884 886 887 888 890 890 891 892 892 892 893 892 892
873 872 870 869 868 866 865 863 861 860 858 857 857 857 858 860 860 865 867 864 870 879 882 884 882 882 882 881 879 874 871 869 867 865 861 858 857 856 855 856 856 856 862 867 867 871 871 877 891 898 902 903 901 902 898 893 893 891 890 891 895 895 890 888 885 886 889 882 878 881 881 880 880 879 882 885 888 889 889 890 890 891 892 891 891 891 891 890
874 872 871 870 868 867 866 864 862 860 858 857 857 858 864 866 865 870 876 877 883 885 884 885 885 883 884 883 881 878 876 872 867 866 865 862 859 858 863 864 862 866 875 877 874 874 873 884 902 904 904 905 902 902 897 892 892 888 887 886 892 899 895 889 887 886 890 888 883 883 883 883 886 885 885 888 889 889 889 889 889 890 891 891 890 889 889 890
875 873 872 870 869 868 867 865 864 862 860 858 858 863 869 871 869 872 875 879 885 885 884 886 885 885 885 884 883 881 880 875 870 869 868 866 862 865 873 877 876 881 883 878 876 877 881 893 903 903 904 903 901 902 896 891 891 888 887 885 891 901 896 887 886 885 890 890 883 883 886 889 894 892 890 892 890 890 891 890 891 891 890 890 889 888 888 889
875 873 872 870 869 868 867 866 865 864 862 860 862 867 871 872 872 873 872 875 883 886 886 886 885 887 885 883 884 882 881 882 880 877 874 871 872 876 879 883 886 889 888 884 883 885 890 899 903 905 903 897 899 903 898 894 894 895 892 890 897 903 898 891 888 889 893 892 887 886 888 893 896 894 894 894 893 893 894 893 893 893 893 891 890 888 888 888
875 874 872 870 869 868 868 868 866 865 864 865 867 869 872 873 873 873 874 877 882 885 887 887 887 888 887 886 885 884 884 887 887 884 880 878 879 881 882 886 888 893 899 898 893 896 902 906 907 906 902 899 900 904 905 899 895 900 899 897 901 904 906 902 896 897 895 891 892 888 886 896 902 899 900 899 896 897 897 895 894 894 894 892 889 888 888 888
876 874 873 871 869 868 868 868 868 868 869 869 870 872 873 873 873 873 873 878 881 884 886 886 887 887 888 887 886 887 887 886 889 888 884 883 882 882 885 888 890 895 903 902 897 901 907 910 909 905 903 903 901 905 911 907 899 899 900 902 903 905 909 907 904 902 888 882 891 888 885 901 907 903 905 904 901 901 900 899 898 897 895 892 890 888 888 890
876 874 873 871 870 869 868 869 870 870 870 871 873 874 873 873 874 873 873 878 884 888 887 885 887 888 888 888 888 887 886 886 890 890 887 886 885 884 886 890 893 896 902 901 899 903 908 911 911 907 904 902 902 907 911 912 905 896 898 903 905 909 911 909 907 898 882 882 892 889 886 900 907 903 905 907 904 902 901 901 901 899 897 895 893 890 889 890
877 876 874 872 871 869 869 871 871 871 872 873 874 873 874 874 873 873 873 879 888 893 892 888 890 891 891 892 890 887 890 891 890 890 890 888 887 886 888 894 897 899 906 901 897 906 909 909 909 908 905 902 904 909 909 913 907 894 898 905 906 910 910 909 907 897 893 892 891 892 891 896 906 906 906 908 904 901 902 903 903 901 899 897 895 893 892 892
878 877 875 874 872 870 871 872 872 873 873 874 874 874 875 874 874 873 872 884 896 897 896 895 892 893 894 894 893 892 897 898 893 892 893 891 890 888 890 899 901 904 908 897 897 912 914 911 911 909 908 905 907 911 911 914 907 894 901 907 908 910 908 910 908 902 904 896 887 896 895 893 904 907 906 908 904 903 905 905 904 903 901 899 897 895 894 894
879 878 876 875 874 873 873 872 873 874 874 875 874 874 875 873 875 873 873 888 900 897 899 898 892 896 899 896 897 901 901 901 901 899 895 894 893 892 896 903 901 902 904 898 902 914 914 913 915 912 912 912 910 912 913 913 906 899 904 906 906 909 907 907 906 902 901 892 890 901 898 895 903 906 907 908 905 906 906 905 905 904 902 901 899 897 895 895
880 879 878 876 875 874 874 873 874 874 874 875 874 874 875 874 874 873 879 894 900 900 902 900 898 904 905 898 898 905 905 904 908 904 898 900 899 897 901 904 902 903 907 908 909 915 915 914 916 916 916 917 914 913 913 912 909 904 906 906 902 906 908 906 910 906 890 884 895 904 900 898 901 905 909 907 905 907 906 905 905 902 901 900 899 898 896 895
881 880 878 877 876 875 875 875 875 874 874 874 874 875 874 874 873 876 889 902 901 903 905 903 907 911 910 907 906 909 908 907 910 907 903 907 908 906 905 907 908 903 905 912 911 913 915 912 916 920 919 920 916 911 910 912 912 906 904 904 895 894 898 894 897 897 883 884 899 904 901 899 897 901 906 904 905 907 906 905 904 901 901 900 898 897 896 895
881 880 879 878 877 877 876 876 875 875 875 874 874 875 872 872 877 886 899 902 901 906 910 910 913 913 914 915 914 917 914 910 914 915 916 918 920 923 922 926 925 905 898 914 916 913 914 917 922 919 918 921 915 909 906 904 909 908 907 905 889 883 888 886 893 901 894 892 899 904 902 897 898 900 901 903 903 904 905 904 903 902 900 899 898 897 896 895
881 881 880 879 878 877 876 876 875 874 874 874 875 875 870 870 885 903 907 902 905 915 919 918 917 917 917 912 913 921 919 915 916 918 922 923 922 927 928 934 936 915 906 920 923 917 911 916 923 916 914 920 918 917 915 908 911 915 918 914 900 897 897 895 911 919 907 898 900 909 906 896 900 902 900 903 902 902 904 903 902 902 901 900 899 898 896 895
882 881 880 880 878 877 876 875 875 874 874 874 873 871 870 876 898 913 909 908 917 921 922 923 918 916 916 914 918 923 918 916 920 919 919 920 922 928 931 933 935 929 924 923 928 928 915 911 920 919 919 922 922 926 926 923 922 922 926 921 912 918 913 906 916 916 911 914 909 906 902 897 902 902 900 903 902 903 904 903 904 902 901 902 899 898 896 894
881 881 880 880 878 877 876 875 874 874 873 874 871 869 874 887 902 908 907 915 923 920 921 926 919 910 911 917 923 925 919 916 921 923 923 925 930 936 939 938 939 939 932 922 928 937 927 918 923 925 926 927 925 928 930 928 923 922 928 923 919 928 926 923 929 927 930 931 916 904 900 900 904 902 903 905 902 903 904 902 904 901 901 901 898 896 895 894
881 881 880 879 879 877 876 875 874 873 874 872 868 873 889 901 908 910 915 922 923 920 917 917 915 907 907 914 919 921 921 919 920 921 925 934 938 939 942 942 942 943 936 929 933 936 926 919 923 926 926 926 927 929 930 927 919 919 924 925 929 935 930 928 934 943 946 929 911 910 906 901 903 901 902 905 902 903 903 901 902 901 901 901 897 896 895 894
880 880 880 880 879 877 876 875 873 873 873 869 870 890 911 919 922 926 929 928 927 926 916 907 912 914 910 911 914 916 917 918 919 919 923 933 936 938 944 943 942 944 942 939 938 938 932 922 924 928 923 923 931 929 928 930 926 922 922 926 934 934 932 933 932 936 941 924 911 917 917 909 905 901 903 906 904 902 901 902 903 902 901 900 898 896 894 893
880 880 880 880 879 878 877 874 874 874 872 874 889 911 924 927 930 934 935 932 930 928 915 907 915 922 917 913 915 921 919 913 916 922 925 929 932 939 945 943 942 945 946 943 938 942 942 925 920 930 926 924 930 926 922 927 928 925 926 928 930 927 928 934 932 930 934 929 920 923 927 918 905 900 903 903 903 902 901 903 903 902 901 899 897 896 894 892
881 880 880 882 879 878 877 874 875 873 869 879 899 914 924 930 933 935 935 934 932 925 915 914 921 923 922 920 919 924 923 917 922 927 926 928 933 940 947 945 943 944 946 945 941 944 948 929 915 925 931 928 926 924 926 930 929 927 928 928 929 930 932 936 938 938 936 932 928 926 921 908 898 898 898 896 900 901 901 902 901 900 900 898 897 895 893 891
881 880 881 882 879 878 878 874 875 876 880 897 912 918 927 933 932 935 935 933 932 924 917 921 923 919 922 928 929 929 927 926 928 928 928 934 937 941 948 950 947 946 946 946 945 947 949 940 923 922 929 929 927 933 938 941 939 934 932 935 934 931 933 935 941 946 942 936 938 937 920 900 895 899 895 893 898 900 900 901 900 900 900 898 896 894 892 890
882 881 882 882 880 879 876 877 890 900 906 918 925 926 931 930 929 934 935 933 933 928 926 926 923 922 924 926 930 934 930 928 932 932 933 938 938 939 948 953 951 951 946 943 947 948 947 947 938 928 925 925 932 945 948 947 949 945 940 941 940 938 937 935 939 947 949 943 943 945 929 904 897 900 897 895 897 898 900 900 899 900 898 896 894 892 890 888
882 883 883 881 880 878 876 888 914 923 918 921 926 928 930 929 929 932 932 933 932 929 929 928 927 930 931 929 933 937 932 928 932 934 935 939 941 943 950 954 953 953 949 946 951 952 951 953 945 932 930 933 939 949 952 951 952 950 947 943 942 945 943 938 939 945 951 952 951 955 943 910 894 899 899 897 898 899 900 900 900 899 896 894 892 889 888 887
885 884 883 881 880 878 879 893 917 927 926 930 934 933 931 930 930 930 931 931 929 928 926 927 930 929 930 934 935 936 933 929 931 936 937 941 947 950 953 954 952 952 950 948 950 952 951 951 943 932 933 938 943 950 955 956 952 946 944 944 942 943 942 941 947 951 953 952 950 954 941 904 891 900 900 899 902 899 898 899 899 897 894 892 890 888 887 885
890 888 885 882 879 877 879 888 903 921 932 933 932 931 932 933 932 929 930 928 928 928 925 927 931 928 930 937 934 935 936 927 929 939 940 940 946 951 953 952 951 952 950 947 950 951 946 947 947 936 928 927 930 936 941 946 947 941 940 944 943 944 947 949 954 958 954 948 946 946 928 898 892 902 900 899 901 897 895 897 895 895 894 891 889 887 885 883
890 888 888 886 880 880 888 895 900 915 929 929 926 930 930 930 933 932 931 931 932 931 926 927 931 929 933 938 935 940 944 930 926 937 942 942 947 952 953 951 951 951 950 951 952 950 946 949 949 938 929 926 924 924 929 936 941 940 942 945 942 942 945 944 952 957 951 950 952 942 918 898 895 900 898 898 900 896 895 895 893 893 892 889 889 886 884 883
889 886 887 888 887 889 900 910 907 910 921 920 918 927 927 925 932 935 933 931 932 933 930 929 932 931 932 934 930 933 942 940 935 936 937 939 943 951 954 952 952 951 950 952 952 951 952 954 950 941 935 932 925 924 934 941 941 939 941 943 941 942 943 944 952 952 947 953 951 932 918 910 902 900 899 897 897 897 896 894 892 892 889 888 887 884 883 882
890 891 893 891 890 894 901 910 911 908 912 911 909 920 925 924 930 933 932 932 932 933 932 932 933 928 925 928 926 927 938 943 940 936 936 939 945 953 956 953 952 951 950 952 952 951 949 947 949 951 943 937 934 934 941 946 944 940 941 942 941 942 944 946 946 943 945 949 934 918 922 921 905 899 899 898 898 897 895 893 891 890 888 887 885 884 883 881
893 897 905 900 895 896 898 904 911 910 911 913 916 922 924 923 926 925 928 934 934 933 930 927 930 928 925 925 921 923 934 936 934 936 938 940 945 949 952 955 955 953 952 952 952 952 947 943 950 955 947 942 942 941 942 946 946 943 942 942 943 943 943 941 939 939 943 939 921 913 923 922 906 900 900 897 898 897 893 891 890 889 888 886 884 883 880 878
898 900 908 906 902 907 909 911 914 911 910 915 918 922 921 918 918 922 929 932 931 933 931 921 921 926 929 930 923 921 927 924 922 931 936 938 942 942 942 948 953 956 955 952 954 955 946 943 952 957 950 943 940 940 945 948 946 942 939 938 940 942 941 938 936 937 939 934 923 920 926 921 907 901 900 898 896 896 893 891 889 887 886 884 882 880 878 876
898 898 903 905 906 913 916 915 913 908 910 914 912 916 921 916 915 923 929 926 920 927 932 922 920 927 931 932 928 923 925 923 919 926 931 932 936 938 936 937 946 956 957 953 956 956 946 943 953 959 950 937 932 935 943 949 947 942 936 935 940 943 939 937 937 937 938 935 928 927 931 923 906 898 899 897 894 894 892 888 887 885 883 882 880 878 877 875
898 899 901 900 904 913 914 914 914 906 905 910 908 913 920 916 916 922 925 927 924 923 928 923 922 930 934 934 931 927 930 931 926 928 932 931 932 934 934 936 942 949 954 956 956 953 949 948 955 958 946 934 932 933 939 949 951 943 931 924 930 937 933 930 932 932 931 929 926 929 927 913 899 897 898 894 891 891 888 885 884 882 881 881 879 877 875 873
899 900 901 898 902 913 914 913 915 907 903 909 912 915 917 915 920 920 916 925 931 927 929 928 925 929 931 931 932 931 932 935 934 935 938 936 936 937 937 940 942 942 948 955 956 956 955 949 952 957 945 931 931 939 949 948 927 911 907 902 907 920 924 922 923 922 921 920 917 915 907 896 895 898 896 891 889 887 884 882 882 881 880 879 877 875 873 871